Starlink 5120

operational
NORAD ID: 53982 Int'l Des: 2022-125 Owner: SPXS Country: US Constellation: starlink
LEOCIRCULAR

Starlink 5120について

説明を読み込み中...

リアルタイム位置

3D地球を読み込み中...

次回通過

高度履歴

Altitude vs Time

uPlot chart will show altitude changes over time

軌道要素

1 53982U 22125U 25305.06220913 .00003015 00000-0 20749-3 0 9991
2 53982 53.2155 71.5868 0001210 81.9564 278.1565 15.08829054170039
Epoch: Nov 1, 2025 • Age: 26 hours

現在のステータス

高度 544.4 km
速度 7.60 km/s
衛星直下点 48.25°N, 97.32°E
打ち上げ日 Oct 5, 2022
運用期間 3 years
タイプ internet

技術仕様

分類 Payload
質量 305.00 kg
乾燥質量 290.00 kg
総質量 305.00 kg
長さ 0.20 m
直径 2.80 m
スパン 9.00 m
形状 Box + pan
製造者 SPXS
バスタイプ Starlink
フェーズステータス In Orbit
所有者/国 SPXS/US

大規模コンステレーション

Loading constellations...